EHI
0 0 0 0 0 0 0 0 0 0 0 0 0 0 0 0 0 0 1 2 3 3 3 3 3 1 0 0 0 0 0 0 0 0 0 0 0 0 0 0 0 0 0
0 0 0 0 0 0 0 0 0 0 0 0 0 0 0 0 0 0 0 1 2 3 3 3 3 2 1 0 0 0 0 0 0 0 0 0 0 0 0 0 0 0 0
0 0 0 0 0 0 0 0 0 0 0 0 0 0 0 0 0 0 0 0 1 1 2 3 3 2 1 0 0 0 0 0 0 0 0 0 0 0 0 0 0 0 0
1 1 1 1 1 0 0 0 0 0 0 0 0 0 0 0 0 0 0 0 0 0 1 2 3 2 1 0 0 0 0 0 0 0 0 0 0 0 0 0 0 0 0
2 2 3 2 1 0 0 0 0 0 0 0 0 0 0 0 0 0 0 0 0 0 0 1 1 1 1 0 0 0 0 0 0 1 1 1 0 0 0 0 0 0 0
5 4 4 3 2 1 0 0 0 0 0 0 0 0 0 0 0 0 0 0 0 0 0 0 0 0 0 0 0 1 0 0 0 1 2 2 1 0 0 0 0 0 0
7 6 4 3 3 2 0 0 0 0 0 0 0 0 0 0 0 0 0 0 0 0 0 0 0 0 0 0 1 2 2 1 1 1 2 2 1 0 0 0 0 0 0
8 7 4 3 2 1 0 0 0 0 0 0 0 0 0 0 0 0 0 0 0 0 0 0 0 0 0 0 0 1 2 2 1 1 2 1 0 0 0 0 0 0 0
9 7 4 3 2 1 0 0 0 0 0 0 0 0 0 0 0 0 0 0 0 0 0 0 0 0 0 0 0 0 1 1 1 1 2 2 0 0 0 0 0 0 0
7 6 5 3 3 2 1 0 0 0 0 0 0 0 0 0 0 0 0 0 0 0 0 0 0 0 0 0 0 0 0 0 0 0 1 1 0 0 0 0 0 0 0
5 5 5 4 3 3 2 1 0 0 0 0 0 0 0 0 0 0 0 0 0 0 0 0 0 0 0 0 0 0 0 0 0 0 0 0 0 0 0 0 0 0 0
3 4 5 5 4 3 3 2 1 0 0 0 0 0 0 0 0 0 0 0 0 0 0 0 0 0 0 0 0 0 0 0 0 0 0 0 0 0 0 0 0 0 0
1 1 3 3 3 3 3 3 1 0 0 0 0 0 0 0 0 0 0 0 0 0 0 0 0 0 0 0 0 0 0 0 0 0 0 0 0 0 0 0 0 0 0
0 0 1 1 2 2 2 2 2 1 0 0 0 0 0 0 0 0 0 0 0 0 0 0 0 0 0 0 0 0 0 0 0 0 0 0 0 0 0 0 0 0 0
0 0 0 0 1 1 1 1 2 1 0 0 0 0 0 0 0 0 0 0 0 0 0 0 0 0 0 0 0 0 0 0 0 0 0 0 0 0 0 0 0 0 0
0 0 0 0 0 0 0 0 1 1 0 0 0 0 0 0 0 0 0 0 0 0 0 0 0 0 0 0 0 0 0 0 0 0 0 0 0 0 0 0 0 0 0
0 0 0 0 0 0 0 0 0 0 0 0 0 0 0 0 0 0 0 0 0 0 0 0 0 0 0 0 0 0 0 0 0 0 0 0 0 0 0 0 0 0 0
0 0 0 0 0 0 0 1 0 0 0 0 0 0 0 0 0 0 0 0 0 0 0 0 0 0 0 0 0 0 0 0 0 0 0 0 0 0 0 0 0 0 0
0 0 0 0 0 0 0 0 0 0 0 0 0 0 0 0 0 0 0 0 0 0 0 0 0 0 0 0 0 0 0 0 0 0 0 0 0 0 0 0 0 0 0
0 0 0 0 0 0 0 0 0 0 0 0 0 0 0 0 0 0 0 0 0 0 0 0 0 0 0 0 0 0 0 0 0 0 0 0 0 0 0 0 0 0 0
0 0 0 1 1 1 0 0 0 1 1 0 0 0 0 0 0 0 0 0 0 0 0 0 0 0 0 0 0 0 0 0 0 0 0 0 0 0 0 0 0 0 0
0 0 0 1 2 1 0 0 0 1 2 1 0 0 0 0 0 0 0 0 0 0 0 0 0 0 0 0 0 0 0 0 0 0 0 0 0 0 0 0 0 0 0
0 0 0 1 1 1 0 0 0 1 2 1 0 0 0 0 0 0 0 0 0 0 0 0 0 0 0 0 0 0 0 0 0 0 0 0 0 0 0 0 0 0 0
0 0 0 0 0 0 0 0 0 0 1 1 0 0 0 0 0 0 0 0 0 0 0 0 0 0 0 0 0 0 0 0 0 0 0 0 0 0 0 0 0 0 0
0 0 0 0 0 0 0 0 0 0 0 0 0 0 0 0 0 0 0 0 0 0 0 0 0 0 0 0 0 0 0 0 0 0 0 0 0 0 0 0 0 0 0
0 0 0 0 0 0 0 0 0 0 0 0 0 0 0 0 0 0 0 0 0 0 0 0 0 0 0 0 0 0 0 0 0 0 0 0 0 0 0 0 0 0 0
Wind_Speed
4 4 3 2 2 2 2 2 1 1 1 1 2 4 5 5 6 4 4 12 11 10 11 11 11 10 10 10 10 10 9 9 9 8 8 8 8 8 8 8 7 6 6
5 4 3 3 3 3 3 3 3 2 1 2 2 4 5 5 5 5 3 6 11 10 10 11 11 10 10 10 10 10 10 9 9 8 8 8 7 7 8 7 7 6 5
6 5 4 4 3 3 3 2 2 1 1 2 2 3 4 5 5 5 4 3 4 9 10 10 10 10 10 10 11 10 10 9 9 8 8 8 7 7 7 7 7 6 6
7 5 4 4 4 3 3 3 2 2 1 1 2 2 3 3 5 6 5 4 3 4 7 11 10 10 11 11 11 11 10 10 9 9 8 8 8 7 7 7 7 7 6
7 5 4 4 4 3 3 3 2 2 2 2 2 2 2 3 4 6 6 6 5 5 4 8 11 10 12 12 12 11 11 11 11 10 10 10 9 8 8 7 7 7 7
6 5 4 4 4 3 2 2 3 2 2 2 2 1 1 2 3 4 6 5 5 6 5 5 5 7 12 12 11 12 12 12 12 12 11 11 10 9 9 8 8 8 8
6 5 4 4 4 4 4 4 3 2 1 2 2 1 2 1 2 3 3 4 5 6 5 5 4 3 4 10 10 11 12 12 12 12 12 12 11 10 10 10 9 9 9
6 6 5 4 4 4 4 3 3 2 1 2 3 2 1 3 2 2 3 4 4 3 5 7 5 5 4 3 6 11 11 12 12 12 11 11 11 10 10 10 10 10 9
5 5 6 5 4 4 4 4 4 4 2 1 2 4 3 3 2 2 2 2 3 4 4 4 6 6 6 4 4 8 11 10 11 11 10 10 10 9 9 9 9 9 9
5 5 6 6 5 4 4 4 4 3 4 2 1 1 3 4 3 1 2 1 2 3 4 4 5 5 5 4 5 8 10 10 10 10 9 9 9 9 9 9 9 8 8
4 5 5 5 5 4 4 4 4 4 3 3 2 2 1 1 2 3 1 2 1 1 2 3 2 3 4 4 4 6 8 9 8 8 7 7 7 7 7 8 8 7 6
3 4 4 5 5 4 5 5 5 5 4 4 3 2 3 2 2 3 2 2 1 1 1 1 2 2 2 3 4 6 7 7 6 5 4 4 4 4 4 4 4 4 3
3 4 4 4 4 4 5 4 4 4 4 4 4 3 2 2 3 3 3 2 1 1 1 0 1 1 1 1 1 3 4 5 5 4 3 3 3 2 2 2 2 1 1
4 5 4 4 4 5 5 4 3 4 3 3 4 3 2 2 2 3 3 3 1 1 1 1 1 1 0 1 2 3 3 4 5 5 4 4 4 4 4 4 4 4 4
4 5 5 5 5 5 5 4 3 4 3 3 3 3 2 2 2 2 2 3 4 2 1 1 1 1 1 3 4 4 4 6 7 6 6 6 6 6 6 6 6 6 6
4 5 5 5 5 4 4 4 3 3 3 3 3 3 2 1 1 1 2 2 3 4 2 1 1 1 3 5 6 5 6 9 9 8 8 8 8 8 8 8 7 7 7
4 4 5 4 5 5 4 4 3 3 4 3 2 3 2 2 2 1 2 2 2 3 4 1 3 3 5 5 4 4 5 4 5 9 9 9 8 8 8 8 8 8 7
4 4 4 4 4 4 4 4 4 3 3 3 2 3 2 2 3 2 2 3 3 3 5 4 3 3 5 4 4 5 4 4 4 7 8 9 8 8 7 7 7 7 6
3 3 4 4 4 4 4 4 4 4 3 3 3 4 3 4 4 3 4 4 3 4 4 6 4 3 3 3 4 5 6 4 5 6 7 8 8 7 7 6 6 5 5
4 4 4 4 4 4 5 5 5 6 5 5 5 5 4 5 5 5 5 4 5 6 6 6 5 4 3 3 4 4 4 4 4 5 6 7 7 8 7 6 5 4 3
4 4 4 4 4 4 4 6 6 7 7 7 7 6 7 10 10 7 6 5 6 6 6 6 5 4 4 3 3 2 3 3 4 4 3 4 4 4 4 4 4 3 2
5 5 5 5 5 4 6 9 9 8 8 8 8 7 8 10 14 15 15 13 10 8 7 6 4 5 3 2 2 3 3 3 3 3 3 3 3 3 2 2 5 5 5
5 6 5 6 6 6 9 11 12 9 8 7 7 7 7 8 9 9 15 17 16 15 11 7 7 5 3 2 3 4 4 4 2 2 2 2 3 2 2 4 7 7 7
5 5 6 6 7 8 11 13 14 10 9 8 7 7 8 7 8 10 11 11 10 9 9 8 7 5 4 3 3 3 3 4 3 3 3 2 3 2 3 3 6 8 8
6 6 6 7 8 8 10 12 12 9 9 9 7 7 8 8 12 14 12 11 10 8 11 13 11 10 10 9 6 4 4 4 3 3 3 2 2 2 2 3 5 9 9
7 7 7 7 7 7 9 11 11 8 9 8 7 8 10 10 10 11 9 9 10 6 6 7 8 8 7 8 9 5 3 3 2 1 2 2 1 2 3 3 3 4 5
Wind_Direction
162 163 164 167 170 166 174 187 200 207 198 165 150 147 146 147 153 163 170 170 169 169 167 167 168 167 168 167 166 166 166 164 162 159 160 161 160 159 158 158 157 155 157
165 163 167 174 180 180 181 185 188 185 179 141 141 149 150 147 155 161 168 175 176 176 175 175 176 177 178 177 177 177 177 176 172 171 171 170 169 170 172 172 172 171 168
165 161 163 172 185 181 177 170 172 149 150 140 138 145 150 155 162 168 170 173 180 186 185 184 185 186 186 186 184 186 185 182 181 181 180 180 181 181 182 183 183 181 180
161 157 161 176 181 170 164 164 158 140 148 154 163 167 158 163 170 175 176 180 181 188 195 194 192 192 193 193 193 194 193 192 191 190 190 191 191 191 192 194 194 193 195
161 156 165 175 169 162 168 176 153 152 158 167 182 181 177 175 178 182 185 190 191 193 194 202 199 198 201 202 203 203 202 202 200 200 202 203 203 201 201 205 206 208 209
161 155 164 173 163 155 165 161 151 153 157 164 172 162 212 203 189 186 194 195 197 200 198 202 200 210 212 212 211 211 210 210 208 208 210 212 211 208 207 211 214 218 219
163 159 161 165 161 162 172 163 148 148 153 133 92 20 345 307 226 208 201 194 202 202 194 199 200 205 217 222 220 218 218 218 216 215 216 216 216 213 212 216 220 224 227
172 172 163 169 167 159 163 162 147 139 165 142 133 107 2 338 316 236 210 200 203 194 198 204 199 205 216 216 225 223 224 225 222 220 220 220 220 217 218 220 223 226 231
178 174 170 172 171 164 169 174 163 153 170 198 152 147 154 219 280 310 254 217 196 192 201 195 200 207 214 213 219 229 227 225 226 227 226 222 221 220 220 225 227 229 233
176 174 173 174 176 171 172 181 171 162 156 177 199 184 169 163 159 277 317 276 216 207 204 208 208 207 209 204 211 219 225 226 226 230 230 227 223 221 221 225 230 233 235
186 180 176 174 177 179 183 181 170 169 162 168 178 173 140 131 139 146 237 299 317 259 212 211 206 209 207 202 206 215 218 225 225 229 229 229 225 222 220 225 231 236 238
194 199 184 182 182 183 187 187 180 175 175 168 169 165 162 159 175 159 180 223 246 285 222 207 210 205 198 191 204 204 206 211 206 208 210 212 209 211 213 218 228 232 233
194 208 198 188 187 187 189 182 178 178 177 173 178 178 174 184 171 159 155 179 202 277 347 342 281 203 180 167 180 171 187 183 173 166 162 156 149 148 145 148 161 171 187
194 197 194 191 190 190 193 178 179 187 180 182 191 180 171 193 171 164 161 151 132 354 14 7 19 30 118 117 111 112 102 128 135 134 125 110 100 93 86 80 78 76 70
191 194 192 193 195 190 184 173 179 186 174 182 187 183 180 198 177 171 161 155 151 161 226 271 38 29 76 81 79 82 78 90 96 101 100 93 86 83 83 81 80 75 70
185 182 193 194 189 182 174 169 166 171 165 186 183 168 180 189 163 153 155 155 156 155 167 207 72 60 75 85 81 78 77 85 83 88 88 90 89 87 85 84 81 78 75
175 179 186 184 180 175 165 162 167 159 166 184 180 160 169 144 123 107 107 112 120 128 133 92 50 49 59 74 70 73 75 72 78 83 86 87 87 86 84 83 81 76 71
169 169 163 159 162 155 156 157 163 162 158 162 160 136 134 123 105 102 99 94 103 115 127 122 78 51 59 76 79 76 72 79 82 81 85 83 81 81 81 79 76 74 69
152 146 145 152 149 145 139 139 141 133 126 130 131 121 114 110 97 90 91 90 91 94 100 114 100 60 56 57 66 68 61 47 70 69 75 76 73 74 75 75 71 67 62
142 137 134 137 132 128 130 130 124 118 109 97 97 101 101 104 107 101 91 93 99 96 94 100 95 71 55 36 56 61 52 37 46 47 52 62 60 60 59 64 64 67 62
121 118 117 118 119 126 135 132 124 117 109 97 86 83 86 90 91 93 97 98 102 100 97 97 93 80 62 56 56 49 63 53 44 34 43 43 39 31 32 39 40 36 10
98 99 102 108 106 110 121 126 124 116 112 108 99 87 81 80 84 83 85 86 94 107 112 106 97 95 81 62 56 70 73 61 39 1 44 35 34 22 1 12 7 7 352
94 93 92 94 95 99 111 115 115 114 111 109 107 102 94 88 86 89 81 76 73 79 94 110 105 99 94 79 85 74 67 72 65 334 48 32 7 5 351 18 15 7 354
98 95 93 95 94 95 105 108 107 101 98 95 96 102 105 99 97 100 94 83 74 69 79 85 98 96 94 93 99 115 111 92 56 13 43 51 352 348 349 352 358 2 352
99 94 96 97 97 94 101 108 110 106 99 91 86 88 98 99 102 103 101 97 89 77 77 84 85 83 79 74 79 78 68 77 53 359 7 61 348 339 336 331 338 347 341
103 100 92 90 97 96 98 108 113 113 109 102 89 83 85 94 100 102 106 109 104 96 89 77 67 59 57 55 57 74 102 99 87 16 334 42 352 6 343 312 309 322 329